TimeCST,TemperatureF,Dew PointF,Humidity,Sea Level PressureIn,VisibilityMPH,Wind Direction,Wind SpeedMPH,Gust SpeedMPH,PrecipitationIn,Events,Conditions,WindDirDegrees,DateUTC
12:00 AM,82,79,87,29.79,12,Calm,Calm,,,,Partly Cloudy,,2013-05-02 06:00:00
3:00 AM,80,78,92,29.77,12,Calm,Calm,,,,Scattered Clouds,,2013-05-02 09:00:00
5:00 AM,80.6,78.8,94,29.77,6.2,NNW,3.5,-,N/A,,Mostly Cloudy,340,2013-05-02 11:00:00
6:00 AM,79,78,94,29.81,9,Calm,Calm,,,,Mist,,2013-05-02 12:00:00
6:00 AM,78.8,77.0,94,29.80,6.2,Calm,Calm,-,N/A,,Mostly Cloudy,0,2013-05-02 12:00:00
7:00 AM,80.6,78.8,94,29.83,6.2,Calm,Calm,-,N/A,,Mostly Cloudy,0,2013-05-02 13:00:00
8:00 AM,86.0,78.8,79,29.83,6.2,NNE,11.5,-,N/A,,Mostly Cloudy,30,2013-05-02 14:00:00
9:00 AM,87,78,67,29.86,9,ENE,6.9,,,,Haze,60,2013-05-02 15:00:00
9:00 AM,87.8,77.0,70,29.85,6.2,ENE,6.9,-,N/A,,Mostly Cloudy,60,2013-05-02 15:00:00
10:00 AM,89.6,77.0,66,29.85,6.2,ENE,6.9,-,N/A,,Mostly Cloudy,60,2013-05-02 16:00:00
11:00 AM,89.6,77.0,66,29.82,6.2,ENE,8.1,-,N/A,,Mostly Cloudy,60,2013-05-02 17:00:00
12:00 PM,90,77,59,29.82,7,ENE,8.1,,,,Haze,60,2013-05-02 18:00:00
12:00 PM,89.6,77.0,66,29.81,6.2,ENE,8.1,-,N/A,,Scattered Clouds,60,2013-05-02 18:00:00
1:00 PM,89.6,77.0,66,29.78,6.2,ENE,10.4,-,N/A,,Partly Cloudy,70,2013-05-02 19:00:00
2:00 PM,91.4,78.8,66,29.76,6.2,ENE,10.4,-,N/A,,Scattered Clouds,60,2013-05-02 20:00:00
3:00 PM,90,79,64,29.74,9,East,10.4,,,,Scattered Clouds,80,2013-05-02 21:00:00
3:00 PM,89.6,78.8,70,29.73,6.2,East,10.4,-,N/A,,Scattered Clouds,80,2013-05-02 21:00:00
4:00 PM,89.6,78.8,70,29.71,6.2,ENE,10.4,-,N/A,,Mostly Cloudy,70,2013-05-02 22:00:00
5:00 PM,87.8,80.6,79,29.71,6.2,East,9.2,-,N/A,,Scattered Clouds,90,2013-05-02 23:00:00
6:00 PM,86,78,71,29.73,10,ENE,6.9,,,Rain-Thunderstorm,Thunderstorms and Rain,70,2013-05-03 00:00:00
6:00 PM,86.0,78.8,79,29.72,6.2,ENE,6.9,-,N/A,Rain-Thunderstorm,Light Thunderstorms and Rain,70,2013-05-03 00:00:00